GW3789 Weather Reports


time (UTC)temp
F
wind
direction
speed
knots
gust
knots
rain 1hr
in
rain 24hr
in
rain mn
in
humidity
%
barometer
mb
20260504100507 58 125 0.9 4.3 0.00 0.36 0.33 80 1013.4
20260504081535 56 303 0.9 4.3 0.00 0.36 0.33 82 1013.1
20260504081005 56 355 0.9 5.2 0.00 0.36 0.33 81 1013.1
20260504080507 56 155 0.9 6.1 0.00 0.36 0.33 80 1013.1
20260504050505 50 115 0.9 3.5 0.00 0.37 0.33 87 1012.2
20260504050009 50 134 0.9 4.3 0.00 0.37 0.33 87 1012.1
20260504045505 50 293 0.0 6.1 0.00 0.37 0.33 87 1012.2
20260504045002 50 246 0.9 6.1 0.00 0.37 0.33 86 1012.1
20260504044515 50 173 1.7 6.1 0.00 0.37 0.33 86 1012.1
20260504044003 50 13 1.7 4.3 0.00 0.37 0.33 86 1012.0
20260504043507 50 73 1.7 4.3 0.00 0.37 0.33 86 1012.2
20260504043018 50 255 1.7 7.0 0.00 0.37 0.33 86 1012.1
20260504042509 50 148 1.7 7.0 0.00 0.37 0.33 86 1012.1
20260504042009 50 171 0.9 5.2 0.00 0.37 0.33 86 1012.2
20260504041524 50 109 1.7 5.2 0.00 0.37 0.33 86 1012.2
20260504041006 50 269 0.9 3.5 0.00 0.37 0.33 86 1012.2
20260504040506 50 151 0.9 7.0 0.00 0.37 0.33 85 1012.3
20260504040027 50 84 1.7 7.0 0.00 0.37 0.33 85 1012.4
20260504035503 50 104 1.7 6.1 0.00 0.37 0.33 85 1012.4
20260504035005 50 126 0.9 6.1 0.00 0.37 0.33 85 1012.4
20260504034519 50 167 0.9 3.5 0.00 0.37 0.33 85 1012.4
20260504034003 50 115 0.9 4.3 0.00 0.37 0.33 85 1012.5
20260504033506 50 295 0.9 4.3 0.00 0.37 0.33 85 1012.4
20260504033028 50 152 1.7 5.2 0.00 0.37 0.33 85 1012.4
20260504032505 50 151 0.9 6.1 0.00 0.37 0.33 85 1012.5
20260504032009 50 158 0.9 6.1 0.00 0.37 0.33 85 1012.5
20260504031523 50 129 0.9 5.2 0.00 0.37 0.33 85 1012.5
20260504031007 50 155 0.9 5.2 0.00 0.37 0.33 85 1012.5
20260504030507 50 245 0.9 5.2 0.00 0.37 0.33 86 1012.5
20260504030025 50 124 1.7 5.2 0.00 0.37 0.33 86 1012.5
20260504025507 50 86 1.7 5.2 0.00 0.37 0.33 86 1012.5
20260504025007 50 120 1.7 6.1 0.00 0.37 0.33 86 1012.5
20260504024540 50 118 1.7 6.1 0.00 0.37 0.33 86 1012.5
20260504024009 50 127 1.7 5.2 0.00 0.37 0.33 86 1012.5
20260504023504 49 144 0.9 5.2 0.00 0.37 0.33 86 1012.5
20260504023010 49 179 0.9 5.2 0.00 0.37 0.33 86 1012.4
20260504022504 49 119 0.9 7.0 0.00 0.37 0.33 86 1012.5
20260504022012 49 150 1.7 7.0 0.00 0.37 0.33 86 1012.6
20260504021518 49 150 0.9 4.3 0.00 0.37 0.33 86 1012.7
20260504021008 49 193 0.9 4.3 0.00 0.37 0.33 87 1012.5
20260504020506 49 101 0.9 3.5 0.00 0.37 0.33 87 1012.7
20260504020022 48 120 0.9 2.6 0.00 0.37 0.33 88 1012.7
20260504015510 48 91 0.9 2.6 0.00 0.37 0.33 88 1012.8
20260504015009 48 300 0.0 1.7 0.01 0.37 0.33 88 1012.8
20260504014526 48 127 0.0 3.5 0.01 0.37 0.33 88 1012.8
20260504014014 48 191 0.9 5.2 0.02 0.37 0.33 88 1012.9
20260504013510 48 153 0.9 5.2 0.03 0.37 0.33 89 1012.9
20260504013025 47 347 0.0 1.7 0.03 0.37 0.33 89 1012.9
20260504012506 47 91 0.0 1.7 0.05 0.37 0.33 89 1012.9
20260504012006 47 261 0.0 3.5 0.06 0.37 0.33 89 1013.0
20260504011526 47 147 0.0 3.5 0.07 0.37 0.33 89 1013.1
20260504011006 47 27 0.0 2.6 0.07 0.37 0.33 90 1013.1
20260504010510 47 212 0.9 2.6 0.09 0.37 0.33 90 1013.1
20260504010018 47 161 0.0 1.7 0.10 0.37 0.33 91 1013.1
20260504005507 47 134 0.0 1.7 0.12 0.37 0.33 92 1013.2
20260504005007 47 118 0.0 1.7 0.13 0.36 0.32 92 1013.3
20260504004537 47 126 0.0 2.6 0.14 0.36 0.32 92 1013.4
20260504004009 47 142 0.9 2.6 0.15 0.35 0.31 92 1013.5
20260504003510 47 134 0.0 1.7 0.17 0.34 0.30 92 1013.5
20260504003025 47 293 0.0 1.7 0.17 0.33 0.29 92 1013.6
20260504002509 47 309 0.0 0.9 0.16 0.32 0.28 92 1013.6
20260504002009 47 109 0.0 0.9 0.15 0.31 0.27 92 1013.7
20260504001525 47 108 0.0 0.0 0.15 0.30 0.26 92 1013.7
20260504001005 47 108 0.0 1.7 0.14 0.29 0.25 92 1013.8
20260504000502 47 109 0.0 1.7 0.13 0.27 0.23 92 1013.9
20260504000003 47 285 0.0 0.9 0.13 0.26 0.22 92 1013.9
20260503235504 47 354 0.0 2.6 0.11 0.24 0.20 91 1014.0
20260503235003 47 308 0.9 2.6 0.11 0.22 0.18 91 1014.0
20260503234503 47 344 0.0 1.7 0.11 0.21 0.17 90 1014.0
20260503234003 47 321 0.0 0.9 0.09 0.19 0.15 90 1014.0
20260503233502 47 74 0.0 0.9 0.07 0.17 0.13 90 1014.0
20260503233004 48 74 0.0 0.9 0.07 0.16 0.12 89 1014.1
20260503232502 48 74 0.0 0.9 0.08 0.15 0.11 89 1014.1
20260503232002 48 127 0.0 0.9 0.09 0.15 0.11 88 1014.2
20260503231508 48 127 0.0 0.9 0.08 0.14 0.11 88 1014.2
20260503231005 48 128 0.0 0.9 0.08 0.14 0.10 87 1014.3
20260503230504 48 127 0.0 0.0 0.09 0.14 0.10 86 1014.4
20260503230008 49 127 0.0 0.9 0.09 0.13 0.09 85 1014.3
20260503225503 49 127 0.0 0.9 0.08 0.12 0.08 84 1014.4
20260503225003 49 128 0.0 0.9 0.07 0.11 0.07 84 1014.4
20260503224507 49 141 0.0 0.9 0.07 0.10 0.06 83 1014.4
20260503224005 49 136 0.0 0.9 0.07 0.10 0.06 83 1014.5
20260503223503 49 142 0.0 0.9 0.07 0.09 0.05 83 1014.6
20260503223003 49 139 0.0 1.7 0.06 0.08 0.04 83 1014.6
20260503222503 49 161 0.0 1.7 0.05 0.07 0.03 82 1014.6
20260503222002 49 147 0.0 1.7 0.04 0.06 0.02 82 1014.7
20260503221504 49 97 0.0 1.7 0.04 0.06 0.02 82 1014.7
20260503221003 50 141 0.0 1.7 0.03 0.05 0.01 81 1014.8
20260503220503 50 165 0.0 1.7 0.03 0.04 0.00 80 1014.9
20260503220008 50 179 0.0 1.7 0.02 0.03 0.00 78 1014.9
20260503215504 50 115 0.0 1.7 0.02 0.03 0.03 77 1014.9
20260503215005 51 108 0.0 1.7 0.01 0.03 0.03 77 1014.9
20260503214507 51 103 0.0 3.5 0.01 0.03 0.03 76 1014.8
20260503214003 51 158 0.0 3.5 0.00 0.02 0.02 75 1014.7
20260503213503 51 154 0.0 2.6 0.00 0.02 0.02 74 1014.7
20260503213013 51 120 0.0 2.6 0.00 0.02 0.02 74 1014.7
20260503212504 52 164 0.0 2.6 0.00 0.01 0.01 73 1014.8
20260503212004 52 142 0.9 2.6 0.00 0.01 0.01 73 1014.8
20260503211507 52 166 0.9 2.6 0.00 0.01 0.01 73 1014.8
20260503211003 52 214 0.0 2.6 0.00 0.01 0.01 73 1014.8
20260503210503 52 202 0.0 2.6 0.00 0.01 0.01 74 1014.9
20260503210008 52 185 0.0 2.6 0.00 0.01 0.01 74 1014.9
20260503205503 52 153 0.0 2.6 0.00 0.01 0.01 74 1014.9
20260503205003 52 146 0.0 4.3 0.00 0.01 0.01 74 1015.0
20260503204511 52 80 0.0 5.2 0.00 0.01 0.01 73 1015.0
20260503204005 52 331 0.9 5.2 0.00 0.01 0.01 72 1015.1
20260503203503 53 282 1.7 4.3 0.00 0.01 0.01 71 1015.1
20260503203011 53 151 0.9 5.2 0.00 0.01 0.01 71 1015.1
20260503202504 53 356 0.9 6.1 0.00 0.01 0.01 70 1015.0
20260503202004 54 151 1.7 6.1 0.00 0.01 0.01 69 1015.0
20260503201512 54 128 1.7 4.3 0.00 0.01 0.01 68 1015.0
20260503201004 54 175 0.9 4.3 0.00 0.01 0.01 68 1014.9
20260503200504 54 88 0.9 6.1 0.00 0.01 0.01 67 1014.9
20260503200012 55 82 1.7 6.1 0.00 0.01 0.01 67 1014.6
20260503195507 55 117 0.9 6.1 0.00 0.01 0.01 68 1014.6
20260503195005 55 128 0.9 6.1 0.00 0.01 0.01 69 1014.5
20260503194511 55 109 0.9 6.1 0.00 0.01 0.01 69 1014.3
20260503194004 55 127 1.7 6.1 0.00 0.01 0.01 69 1014.1
20260503193507 55 134 1.7 6.1 0.00 0.01 0.01 69 1014.1
20260503193028 55 141 1.7 5.2 0.00 0.01 0.01 70 1014.0
20260503192503 55 207 0.9 5.2 0.00 0.01 0.01 71 1013.9
20260503192004 55 123 1.7 5.2 0.00 0.01 0.01 70 1013.8
20260503191514 55 76 1.7 6.1 0.00 0.01 0.01 70 1013.6
20260503191006 55 149 1.7 6.1 0.00 0.01 0.01 70 1013.6
20260503190506 55 138 1.7 6.1 0.00 0.01 0.01 70 1013.5
20260503190025 55 134 2.6 6.1 0.00 0.01 0.01 70 1013.6
20260503185507 55 161 2.6 7.8 0.00 0.01 0.01 71 1013.6
20260503185003 55 210 2.6 7.8 0.00 0.01 0.01 70 1013.6
20260503184517 56 96 1.7 5.2 0.00 0.01 0.01 71 1013.7
20260503184004 56 166 1.7 8.7 0.00 0.01 0.01 70 1013.7
20260503183507 56 146 2.6 8.7 0.00 0.01 0.01 70 1013.6
20260503183013 56 237 1.7 6.1 0.00 0.01 0.01 70 1013.6
20260503182505 56 141 1.7 7.0 0.00 0.01 0.01 70 1013.5
20260503182011 56 160 2.6 7.0 0.00 0.01 0.01 70 1013.4
20260503181513 56 210 2.6 9.6 0.00 0.01 0.01 69 1013.3
20260503181009 56 151 4.3 9.6 0.00 0.01 0.01 69 1013.2
20260503180506 57 174 4.3 7.8 0.00 0.01 0.01 69 1013.2
20260503180016 57 158 3.5 7.8 0.00 0.01 0.01 69 1013.3
20260503175504 57 203 3.5 7.8 0.00 0.01 0.01 69 1013.3
20260503175003 57 94 3.5 7.8 0.00 0.01 0.01 69 1013.4
20260503174515 57 167 2.6 7.0 0.00 0.01 0.01 69 1013.5
20260503174006 58 129 3.5 7.0 0.00 0.01 0.01 69 1013.5
20260503173508 58 143 3.5 7.0 0.00 0.01 0.01 69 1013.5
20260503173020 58 112 3.5 7.0 0.00 0.01 0.01 69 1013.6
20260503172506 58 139 1.7 8.7 0.00 0.01 0.01 70 1013.6
20260503172005 58 105 4.3 8.7 0.00 0.01 0.01 69 1013.6
20260503171518 58 230 1.7 6.1 0.00 0.01 0.01 70 1013.7
20260503171007 58 110 2.6 6.1 0.00 0.01 0.01 69 1013.7
20260503170506 58 176 1.7 6.1 0.00 0.01 0.01 69 1013.7
20260503151002 61 219 2.6 7.0 0.00 0.01 0.01 66 1014.0
20260503150503 61 128 4.3 10.4 0.00 0.01 0.01 66 1014.1
20260503131006 60 165 3.5 7.8 0.00 0.01 0.01 70 1015.4
20260503130505 59 145 4.3 7.8 0.00 0.01 0.01 68 1015.5
20260503110512 59 121 5.2 11.3 0.00 0.01 0.01 72 1016.3